Tracking 19562 objects as of 22-Mar-2019
HD Live streaming from Space Station
objects crossing your sky now

SMS 2

Track SMS 2 now!
SMS 2 is classified as:


NORAD ID: 7648
Int'l Code: 1975-011A
Perigee: 35,974.8 km
Apogee: 36,043.8 km
Inclination: 11.7 °
Period: 1,447.1 minutes
Semi major axis: 42380 km
RCS: 3.6814 m2 (large)
Launch date: February 6, 1975
Source: United States (US)
Launch site: AIR FORCE EASTERN TEST RANGE (AFETR)
aabbcc
Your satellite tracking list
Your tracking list is empty




NASA's NSSDC Master Catalog

Two Line Element Set (TLE):
1  7648U 75011A   19080.56673411 -.00000160 +00000-0 +00000-0 0  9998
2  7648 011.6649 314.0687 0008135 194.7817 153.7038 00.99507837109350
Source of the keplerian elements: AFSPC